When you browse on this site, cookies collect data to enhance your experience and personalize the content and advertising you see.
Visit our Privacy Policy to learn more. By continuing to use the site, you agree to this use of cookies and data.
  • In Hungary
  • List of Countries
  • For 7 days
  • Water Temperature
  • Weather Map
  • News
  • Weather Widgets
  • user-avatar
    Login

    Hourly Weather Akalkot

    Today, 12 December, Thursday

    Time Temperature Precipitation Wind Pressure Humidity
    00:00 +24°C° 0 mm 3 mps 720 mmHg 61%
    01:00 +22°C° 0 mm 4 mps 720 mmHg 64%
    02:00 +22°C° 0 mm 4 mps 719 mmHg 66%
    03:00 +21°C° 0 mm 4 mps 720 mmHg 71%
    04:00 +21°C° 0 mm 4 mps 720 mmHg 75%
    05:00 +20°C° 0 mm 3 mps 720 mmHg 79%
    06:00 +21°C° 0 mm 4 mps 720 mmHg 77%
    07:00 +22°C° 0 mm 4 mps 721 mmHg 75%
    08:00 +23°C° 0 mm 5 mps 722 mmHg 73%
    09:00 +25°C° 0 mm 5 mps 722 mmHg 66%
    10:00 +27°C° 0 mm 4 mps 721 mmHg 58%
    11:00 +28°C° 0 mm 4 mps 721 mmHg 51%
    12:00 +29°C° 0 mm 4 mps 720 mmHg 47%
    13:00 +30°C° 0 mm 3 mps 720 mmHg 43%
    14:00 +31°C° 0 mm 3 mps 719 mmHg 40%
    15:00 +30°C° 0 mm 3 mps 719 mmHg 41%
    16:00 +30°C° 0 mm 3 mps 719 mmHg 42%
    17:00 +29°C° 0 mm 3 mps 719 mmHg 43%
    18:00 +28°C° 0 mm 3 mps 719 mmHg 45%
    19:00 +27°C° 0 mm 3 mps 720 mmHg 47%
    20:00 +26°C° 0 mm 3 mps 720 mmHg 49%
    21:00 +25°C° 0 mm 3 mps 720 mmHg 52%
    22:00 +25°C° 0 mm 4 mps 720 mmHg 54%
    23:00 +23°C° 0 mm 4 mps 720 mmHg 57%

    Tomorrow, 13 December, Friday

    Time Temperature Precipitation Wind Pressure Humidity
    00:00 +22°C° 0 mm 4 mps 720 mmHg 64%
    01:00 +22°C° 0 mm 4 mps 720 mmHg 71%
    02:00 +21°C° 0 mm 5 mps 720 mmHg 78%
    03:00 +21°C° 0 mm 5 mps 720 mmHg 81%
    04:00 +20°C° 0 mm 5 mps 720 mmHg 84%
    05:00 +20°C° 0 mm 4 mps 720 mmHg 87%
    06:00 +21°C° 0 mm 5 mps 721 mmHg 82%
    07:00 +22°C° 0 mm 5 mps 721 mmHg 77%
    08:00 +22°C° 0 mm 5 mps 722 mmHg 73%
    09:00 +25°C° 0 mm 5 mps 722 mmHg 65%
    10:00 +27°C° 0 mm 4 mps 722 mmHg 58%
    11:00 +28°C° 0 mm 4 mps 722 mmHg 50%
    12:00 +29°C° 0 mm 3 mps 721 mmHg 47%
    13:00 +30°C° 0 mm 3 mps 721 mmHg 45%
    14:00 +30°C° 0 mm 3 mps 720 mmHg 42%
    15:00 +30°C° 0 mm 2 mps 720 mmHg 43%
    16:00 +30°C° 0 mm 2 mps 720 mmHg 44%
    17:00 +29°C° 0 mm 2 mps 720 mmHg 45%
    18:00 +29°C° 0 mm 3 mps 720 mmHg 47%
    19:00 +28°C° 0 mm 3 mps 721 mmHg 49%
    20:00 +27°C° 0 mm 4 mps 722 mmHg 51%
    21:00 +26°C° 0 mm 4 mps 722 mmHg 53%
    22:00 +26°C° 0 mm 4 mps 722 mmHg 54%
    23:00 +25°C° 0 mm 4 mps 722 mmHg 56%

    Day after tomorrow, 14 December, Saturday

    Time Temperature Precipitation Wind Pressure Humidity
    00:00 +23°C° 0 mm 4 mps 721 mmHg 62%
    01:00 +23°C° 0 mm 4 mps 721 mmHg 68%
    02:00 +22°C° 0 mm 5 mps 721 mmHg 74%
    03:00 +22°C° 0 mm 5 mps 721 mmHg 77%
    04:00 +21°C° 0 mm 4 mps 721 mmHg 81%
    05:00 +21°C° 0 mm 4 mps 722 mmHg 84%
    06:00 +22°C° 0 mm 5 mps 722 mmHg 81%
    07:00 +22°C° 0 mm 5 mps 723 mmHg 78%
    08:00 +23°C° 0 mm 6 mps 724 mmHg 76%
    09:00 +26°C° 0 mm 5 mps 724 mmHg 66%
    10:00 +28°C° 0 mm 5 mps 724 mmHg 57%
    11:00 +30°C° 0 mm 5 mps 723 mmHg 48%
    12:00 +30°C° 0 mm 4 mps 723 mmHg 44%
    13:00 +32°C° 0 mm 4 mps 722 mmHg 41%
    14:00 +31°C° 0 mm 3 mps 721 mmHg 37%
    15:00 +31°C° 0 mm 3 mps 721 mmHg 39%
    16:00 +30°C° 0 mm 3 mps 721 mmHg 41%
    17:00 +30°C° 0 mm 3 mps 721 mmHg 42%
    18:00 +29°C° 0 mm 3 mps 721 mmHg 44%
    19:00 +28°C° 0 mm 3 mps 722 mmHg 46%
    20:00 +27°C° 0 mm 3 mps 722 mmHg 48%
    21:00 +27°C° 0 mm 3 mps 722 mmHg 50%
    22:00 +26°C° 0 mm 4 mps 722 mmHg 51%
    23:00 +26°C° 0 mm 4 mps 722 mmHg 52%

    15 December, Sunday

    Time Temperature Precipitation Wind Pressure Humidity
    00:00 +25°C° 0 mm 4 mps 722 mmHg 58%
    01:00 +23°C° 0 mm 4 mps 721 mmHg 63%
    02:00 +22°C° 0 mm 4 mps 721 mmHg 69%
    03:00 +22°C° 0 mm 3 mps 721 mmHg 73%
    04:00 +21°C° 0 mm 3 mps 721 mmHg 77%
    05:00 +21°C° 0 mm 3 mps 721 mmHg 81%
    06:00 +21°C° 0 mm 3 mps 722 mmHg 79%
    07:00 +22°C° 0 mm 4 mps 722 mmHg 77%
    08:00 +23°C° 0 mm 4 mps 723 mmHg 74%
    09:00 +26°C° 0 mm 4 mps 723 mmHg 65%
    10:00 +27°C° 0 mm 4 mps 722 mmHg 56%
    11:00 +29°C° 0 mm 4 mps 722 mmHg 47%
    12:00 +30°C° 0 mm 3 mps 722 mmHg 44%
    13:00 +30°C° 0 mm 3 mps 721 mmHg 41%
    14:00 +31°C° 0 mm 3 mps 720 mmHg 37%
    15:00 +30°C° 0 mm 3 mps 720 mmHg 39%
    16:00 +30°C° 0 mm 3 mps 720 mmHg 40%
    17:00 +29°C° 0 mm 2 mps 720 mmHg 42%
    18:00 +28°C° 0 mm 2 mps 720 mmHg 44%
    19:00 +27°C° 0 mm 2 mps 721 mmHg 46%
    20:00 +26°C° 0 mm 3 mps 721 mmHg 48%
    21:00 +26°C° 0 mm 3 mps 721 mmHg 50%
    22:00 +26°C° 0 mm 4 mps 721 mmHg 53%
    23:00 +25°C° 0 mm 4 mps 721 mmHg 55%

    16 December, Monday

    Time Temperature Precipitation Wind Pressure Humidity
    00:00 +23°C° 0 mm 4 mps 721 mmHg 63%
    01:00 +23°C° 0 mm 4 mps 721 mmHg 71%
    02:00 +22°C° 0 mm 4 mps 720 mmHg 79%
    03:00 +21°C° 0 mm 4 mps 720 mmHg 82%
    04:00 +21°C° 0 mm 4 mps 721 mmHg 85%
    05:00 +20°C° 0 mm 3 mps 721 mmHg 88%
    06:00 +21°C° 0 mm 4 mps 721 mmHg 83%
    07:00 +22°C° 0 mm 4 mps 722 mmHg 79%
    08:00 +23°C° 0 mm 5 mps 722 mmHg 74%
    09:00 +25°C° 0 mm 4 mps 722 mmHg 65%
    10:00 +27°C° 0 mm 4 mps 722 mmHg 57%
    11:00 +29°C° 0 mm 4 mps 722 mmHg 48%
    12:00 +30°C° 0 mm 4 mps 721 mmHg 45%
    13:00 +30°C° 0 mm 3 mps 721 mmHg 41%
    14:00 +31°C° 0 mm 3 mps 720 mmHg 37%
    15:00 +30°C° 0 mm 3 mps 720 mmHg 38%
    16:00 +30°C° 0 mm 3 mps 720 mmHg 40%
    17:00 +29°C° 0 mm 3 mps 720 mmHg 41%
    18:00 +28°C° 0 mm 3 mps 720 mmHg 43%
    19:00 +27°C° 0 mm 3 mps 721 mmHg 45%
    20:00 +26°C° 0 mm 3 mps 721 mmHg 47%
    21:00 +26°C° 0 mm 4 mps 721 mmHg 51%
    22:00 +25°C° 0 mm 5 mps 721 mmHg 55%
    23:00 +23°C° 0 mm 5 mps 721 mmHg 60%

    17 December, Tuesday

    Time Temperature Precipitation Wind Pressure Humidity
    00:00 +23°C° 0 mm 5 mps 721 mmHg 63%
    01:00 +22°C° 0 mm 5 mps 721 mmHg 66%
    02:00 +22°C° 0 mm 5 mps 721 mmHg 70%
    03:00 +21°C° 0 mm 4 mps 721 mmHg 72%
    04:00 +21°C° 0 mm 4 mps 721 mmHg 75%
    05:00 +20°C° 0 mm 3 mps 721 mmHg 77%
    06:00 +21°C° 0 mm 3 mps 722 mmHg 74%
    07:00 +22°C° 0 mm 4 mps 722 mmHg 70%
    08:00 +23°C° 0 mm 4 mps 723 mmHg 67%
    09:00 +25°C° 0 mm 4 mps 723 mmHg 59%
    10:00 +27°C° 0 mm 4 mps 723 mmHg 51%
    11:00 +29°C° 0 mm 4 mps 723 mmHg 43%
    12:00 +29°C° 0 mm 4 mps 722 mmHg 41%
    13:00 +30°C° 0 mm 4 mps 722 mmHg 38%
    14:00 +32°C° 0 mm 4 mps 721 mmHg 36%
    15:00 +30°C° 0 mm 4 mps 721 mmHg 38%
    16:00 +30°C° 0 mm 3 mps 721 mmHg 39%
    17:00 +29°C° 0 mm 3 mps 721 mmHg 41%
    18:00 +28°C° 0 mm 3 mps 721 mmHg 43%
    19:00 +27°C° 0 mm 3 mps 722 mmHg 46%
    20:00 +26°C° 0 mm 3 mps 722 mmHg 48%
    21:00 +25°C° 0 mm 3 mps 722 mmHg 50%
    22:00 +25°C° 0 mm 4 mps 722 mmHg 52%
    23:00 +23°C° 0 mm 4 mps 722 mmHg 54%
    Show more